{"data":{"norad_id":48786,"epoch":"2026-05-25T01:20:37.808160Z","epoch_age_seconds":80273,"freshness":"FRESH","line1":"1 48786U 21045V   26145.05599315 -.00000110  00000+0 -32676-3 0  9990","line2":"2 48786  87.8998 263.7947 0001913  96.6293 263.5055 13.15548016241233","mean_motion":13.15548016,"eccentricity":0.0001913,"inclination_deg":87.8998,"raan_deg":263.7947,"arg_perigee_deg":96.6293,"mean_anomaly_deg":263.5055,"bstar":-0.00032676,"rev_number":24123,"period_min":109.46008678409,"perigee_km":1200.3227819093,"apogee_km":1203.222855406,"semimajor_km":7579.9098186576,"source":"CELESTRAK","updated_at":"2026-05-25T13:38:22.445447Z"}}